Regional Weather Roundup
Issued by NWS

Home | Current Version | Previous Version | Graphics & Text | Print | Product List | Glossary On
Versions: 1 2 3 4 5 6 7 8 9 10 11 12 13 14 15 16 17 18 19 20 21 22 23 24 25 26 27 28 29 30 31 32 33 34 35 36 37 38 39 40 41 42 43 44 45 46 47 48 49 50
000
ASUS43 KDMX 291903
RWRIA

WEATHER ROUNDUP FOR IOWA
NATIONAL WEATHER SERVICE DES MOINES IA
200 PM CDT FRI JUL 29 2016

NOTE: "FAIR" INDICATES FEW OR NO CLOUDS BELOW 12,000 FEET WITH NO
SIGNIFICANT WEATHER AND/OR OBSTRUCTIONS TO VISIBILITY.

* - THESE STATIONS ARE NOT NWS STATIONS...THUS NOT UNDER NWS
QUALITY CONTROL.  THEY ALSO DO NOT REPORT WEATHER SUCH
AS PRECIPITATION OR FOG.

IAZ001>003-012>014-020>022-031>034-043>046-292000-
   NORTHWEST IOWA

CITY           SKY/WX    TMP DP  RH WIND       PRES   REMARKS
CARROLL *      CLOUDY    70  63  78 N10G18    30.05S
CHEROKEE *     PTSUNNY   75  63  67 N10G16    30.05F
DENISON *      CLOUDY    73  63  68 NE9       30.03S
LE MARS *      MOSUNNY   77  59  53 VRB7      30.07S
SHELDON *      PTSUNNY   75  63  64 E6G13     30.06F
SIOUX CITY     PTSUNNY   80  58  46 N7        30.06S HX  80
SPENCER        CLOUDY    76  60  57 N10       30.07F
STORM LAKE *   PTSUNNY   72  63  73 NE9       30.07S
$$

IAZ055>058-069>071-079>083-090>094-292000-
   SOUTHWEST IOWA

CITY           SKY/WX    TMP DP  RH WIND       PRES   REMARKS
ATLANTIC *     MOSUNNY   77  64  65 N16       30.03S
CLARINDA *       N/A     79  64  61 MISG      30.05S HX  81
COUNCIL BLFS * MOSUNNY   75  63  64 N8G15     30.04F
CRESTON *      MOSUNNY   75  63  64 N9G15     30.03S
HARLAN  *      PTSUNNY   73  63  68 N10       30.07S
LAMONI         MOSUNNY   77  65  66 N9        30.01F
RED OAK *      PTSUNNY   79  64  61 N7G14     30.03S HX  81
SHENANDOAH *   PTSUNNY   77  64  65 VRB3      30.04F
$$

IAZ047>049-059>061-072>074-084-292000-
   CENTRAL IOWA

CITY           SKY/WX    TMP DP  RH WIND       PRES   REMARKS
AMES           CLOUDY    68  65  90 N7        30.01F
ANKENY *         N/A    N/A N/A N/A MISG        N/A
BOONE *        CLOUDY    68  63  83 N8        30.02S
CHARITON *       N/A    N/A N/A N/A MISG        N/A
DES MOINES     CLOUDY    70  63  78 NW8       30.01S
GRINNELL*      CLOUDY    68  64  88 NW6       30.01S FOG
KNOXVILLE *    CLOUDY    70  63  78 NW8       30.00S
MARSHALLTOWN   CLOUDY    69  66  90 NW7       29.99F
NEWTON *       CLOUDY    70  66  88 N7        30.00S
PELLA *        DRIZZLE   68  65  88 NW5       30.01F
PERRY *        CLOUDY    68  65  89 NW5       30.04S
$$

IAZ004>006-015-016-023>025-035-036-292000-
   NORTH CENTRAL IOWA

CITY           SKY/WX    TMP DP  RH WIND       PRES   REMARKS
ALGONA *       CLOUDY    70  64  83 NE9G16    30.05F
ESTHERVILLE    CLOUDY    72  63  73 N12       30.06F
FORT DODGE *   CLOUDY    68  61  77 NE8       30.04F
MASON CITY     PTSUNNY   74  62  66 NE14      30.04F
FOREST CITY *  PTSUNNY   70  61  73 N8G16     30.04F
IOWA FALLS *   CLOUDY    67  63  87 N6        30.03F
$$

IAZ007>011-017>019-026>030-037>042-050>054-066-292000-
   NORTHEAST IOWA

CITY           SKY/WX    TMP DP  RH WIND       PRES   REMARKS
CEDAR RAPIDS   LGT RAIN  71  69  93 N8        29.96F FOG
CHARLES CITY * CLOUDY    70  66  88 NE9       30.03R
CLINTON *      CLOUDY    76  70  82 N8        29.94F
DECORAH *      CLOUDY    68  66  94 NE8G16    30.00F
DUBUQUE        RAIN      67  66  97 N13       29.98F FOG
MONTICELLO *   CLOUDY    70  68  94 N8        29.97S
OELWEIN *      CLOUDY    68  64  88 N9G15     30.01S
WATERLOO       CLOUDY    69  62  78 N13       29.98F
$$

IAZ064-065-067-068-078-292000-
   EAST CENTRAL IOWA

CITY           SKY/WX    TMP DP  RH WIND       PRES   REMARKS
DAVENPORT      MOSUNNY   75  68  78 VRB7      29.95S
IOWA CITY      CLOUDY    78  68  71 SW9       29.96F HX  80
MT. PLEASANT * PTSUNNY   76  70  80 W6        29.97F
MUSCATINE *    PTSUNNY   81  66  61 W8        29.95S HX  83
QUAD CITIES    PTSUNNY   80  69  69 W7        29.93S HX  83
$$

IAZ062-063-075>077-085>089-095>099-292000-
   SOUTHEAST IOWA

CITY           SKY/WX    TMP DP  RH WIND       PRES   REMARKS
BURLINGTON     CLOUDY    75  68  78 NW8       29.96F
FAIRFIELD *    CLOUDY    72  64  78 NW8       29.98F
KEOKUK *       PTSUNNY   77  66  69 NW9       29.96F
CENTERVILLE *    N/A     75  64  69 W9        30.02S
OTTUMWA        CLOUDY    73  64  73 NW10      29.99S
WASHINGTON *   CLOUDY    72  68  88 W8        29.98F
$$

ABBREVIATIONS USED IN REMARKS
   TC - TEMPERATURES IN CELSIUS
  WCI - WIND CHILL INDEX
   HX - HEAT INDEX
  VSB - VISIBILITY
$$





USA.gov is the U.S. government's official web portal to all federal, state and local government web resources and services.